Вернуться в каталог

COSMOS 2251 DEB

АктивенLEO
NORAD 34569·DEBRIS·🇷🇺 Russia

Запущен Jun 16, 1993 с Plesetsk Cosmodrome

Loading…

Ближайшие Пролёты (ближайшие 24 часа)

TLE

СвежийSource: Space-Track

Эпоха: Sep 14, 2026, 15:09 UTC

1 34569U 93036VF  26257.63149997  .00001141  00000-0  43516-3 0  9997
2 34569  73.9898  58.9189 0156208 184.6753 301.1937 14.25444771908986

Отслеживайте COSMOS 2251 DEB в реальном времени с AllMySat

Download on the App Store